OPS 9327 (IDSCS 14)

导读

OPS 932,又名IDSCS 14,是美国于1967年1月18日发射的军用通信卫星,隶属于初始国防卫星通信系统(IDSCS)。作为冷战时期美军早期战略通信卫星系列的第14颗星,它承担了美军全球指挥通信任务,服务于跨战区军事信息传输,支撑美军全球部署的通信需求。作为早期静止轨道通信卫星技术验证项目,该卫星标志着美国军用卫星通信体系初步成型,为后续DSCS系列卫星发展奠定技术基础,现已退役。

基本信息
目录编号:
2654
目录名称:
OPS 9327 (IDSCS 14)
国际标识:
1967-003G
轨道中心:
EARTH
卫星名称:
OPS 9327 (IDSCS 14)
卫星全名:
--
卫星状态:
在轨 (已飞行21727 天)
发射日期:
1967-01-18 UTC
国别 :
美国 (US)
星等 :
--
轨道信息
数据来源 国际轨道数据
星历时间: 2026-07-13T16:19:52+0800
21小时前
查看轨道信息
半长轴: 40250.014km
偏心率: 0.0057462
轨道倾角: 8.208°
近地点辐角 50.998°
升交点赤经 46.840°
平近点角 162.583°
近地点: 33640.592km
远地点: 34103.162km
周期: 1339.395分钟
每日圈数: 1.075112
详细信息
使用方式:
暂无
2D轨道图
3D轨道图
轨道高度分析图
轨道倾角分析图
轨道综合分析图
查看轨道综合分析图